Theta_e
309 309 309 309 309 309 310 310 310 310 310 310 309 309 309 310 311 313 313 313 313 313 313 317 317 317 317 324 324 324 330 333 332 333 333 331 333 331 336 344 339 340 347 346 346
308 308 308 308 308 309 309 309 309 310 310 309 308 309 311 317 320 319 319 315 313 315 314 317 318 319 320 322 323 326 330 331 329 330 331 332 332 333 338 341 341 340 340 340 345
310 310 310 309 308 308 308 308 309 308 308 308 310 314 319 321 319 320 318 317 317 316 315 316 317 321 322 321 322 324 329 328 329 330 329 330 331 329 331 334 337 342 343 343 346
315 314 314 314 315 315 315 313 311 310 311 312 315 318 319 320 318 317 313 313 318 318 317 316 317 320 322 323 321 326 324 327 328 329 329 330 331 332 332 331 330 329 325 327 344
315 315 315 314 314 314 314 314 314 314 313 314 317 318 318 318 318 317 317 317 317 319 319 317 319 321 322 322 322 324 324 324 325 325 326 329 331 331 331 331 331 330 329 329 335
315 315 315 315 315 314 314 315 314 313 314 316 317 318 318 318 319 318 318 317 318 317 313 317 317 319 319 320 322 322 322 324 323 324 323 327 330 329 330 330 329 330 328 328 322
312 315 316 316 315 315 315 315 316 314 316 316 316 317 318 318 318 318 317 318 317 317 316 316 318 316 318 320 317 318 321 320 321 321 323 324 327 330 330 328 330 330 329 327 325
309 310 315 316 316 315 315 315 317 316 316 316 317 318 318 321 319 318 317 317 317 317 318 318 318 318 318 317 318 320 321 323 322 321 321 326 326 325 325 325 329 329 329 329 329
309 309 310 314 315 315 315 317 320 318 317 318 319 319 319 319 319 317 317 317 317 317 317 317 317 316 316 320 322 321 324 323 323 322 322 324 324 323 322 323 328 328 332 336 336
312 309 310 310 314 315 315 319 319 321 321 319 320 319 319 319 318 318 317 317 317 317 316 316 315 318 317 320 323 323 322 321 322 322 321 321 325 327 324 320 325 336 339 337 335
312 312 310 311 311 313 315 319 319 319 319 319 319 319 319 319 318 317 317 317 317 317 319 316 319 319 320 318 318 319 319 319 320 319 321 323 328 328 330 333 336 337 335 333 331
313 313 311 310 310 312 318 319 319 319 319 318 319 319 319 319 319 317 317 317 317 319 317 318 320 319 317 316 316 317 318 319 319 320 322 328 329 330 331 334 336 334 332 330 328
313 313 313 311 312 313 318 319 319 319 319 318 319 320 319 318 318 317 317 317 318 318 318 319 320 316 317 317 318 318 320 320 320 320 319 323 329 331 329 329 328 327 324 321 319
312 313 313 311 315 318 319 320 319 318 321 322 322 320 319 316 317 317 317 318 319 320 318 319 317 319 320 320 320 322 318 320 319 320 324 320 329 329 327 321 317 317 316 316 315
312 313 314 311 314 317 319 319 319 319 324 322 320 317 317 317 318 318 318 319 320 320 320 321 318 318 319 318 318 321 318 319 319 320 320 323 327 327 327 320 314 313 314 313 312
311 313 314 311 311 315 319 318 319 323 327 326 318 316 317 316 317 319 319 319 318 320 321 320 317 317 317 315 316 317 318 319 319 320 322 324 327 328 325 320 314 312 311 312 311
311 312 313 311 312 316 319 318 319 326 323 321 318 316 317 317 319 320 319 320 321 322 323 321 320 320 316 317 318 319 321 321 321 321 322 323 326 322 315 313 313 311 309 309 308
310 312 313 311 316 318 319 320 321 324 327 322 318 316 317 318 319 319 319 320 319 320 322 322 322 321 320 316 318 319 322 321 321 322 325 323 327 322 313 311 310 310 310 309 308
311 314 314 312 312 318 319 321 320 323 323 320 320 320 319 318 320 320 320 320 321 319 321 320 322 319 318 317 315 318 320 317 319 317 324 322 318 316 314 312 311 310 310 309 308
312 320 319 313 317 320 322 319 323 322 320 320 321 320 321 320 321 321 320 319 320 318 317 320 318 317 319 318 318 318 316 321 320 321 323 322 322 324 317 314 312 311 310 309 308
314 319 319 318 321 319 323 322 320 320 322 320 321 321 320 322 321 322 320 319 318 319 319 320 320 317 318 320 320 320 320 318 320 320 321 322 323 316 318 315 312 310 309 308 308
312 320 317 320 320 315 320 318 318 321 318 320 320 320 321 320 323 323 321 320 318 319 320 318 320 318 319 316 315 316 317 317 323 322 320 322 322 314 314 312 311 310 309 308 307
311 314 317 320 322 319 317 318 319 319 318 320 320 319 319 320 324 321 320 316 316 317 320 317 317 315 320 319 319 319 316 316 317 319 323 322 320 313 312 312 311 310 309 307 306
311 316 315 316 314 317 318 319 318 316 317 318 319 319 320 321 320 321 319 316 316 316 312 314 315 315 316 320 319 319 317 315 317 326 318 318 317 315 314 314 312 310 308 306 305
309 310 307 315 315 315 316 316 318 319 317 318 320 319 321 322 321 322 319 317 317 317 316 318 321 318 316 317 317 316 316 315 315 314 318 316 316 316 315 314 311 309 307 305 304
307 307 307 309 310 314 313 319 318 317 317 320 321 318 319 322 321 322 319 318 319 319 319 316 321 319 319 318 317 317 315 316 316 316 316 316 316 314 313 311 310 308 305 304 304
307 306 307 310 314 314 314 315 317 316 317 318 319 319 320 318 316 315 314 316 318 321 320 320 320 320 316 317 315 317 316 317 317 316 316 316 316 313 312 311 310 307 304 303 303
Wind_Speed
11 10 9 9 9 8 6 4 2 1 1 1 2 2 3 3 4 3 3 0 1 5 6 4 4 5 10 6 5 5 2 5 4 3 3 4 7 6 3 1 3 1 3 3 7
14 13 12 11 11 10 8 6 5 3 2 2 2 3 3 4 7 9 7 2 1 2 4 6 6 7 5 6 4 3 4 6 2 3 2 5 4 4 2 3 1 1 3 4 9
19 18 17 16 15 13 11 9 7 5 4 4 4 5 5 3 7 5 4 1 2 2 2 5 5 6 3 4 4 4 6 4 4 6 2 4 3 3 3 3 7 6 7 8 11
18 17 17 17 16 15 14 12 10 7 6 5 6 7 5 4 3 7 8 2 5 3 3 5 5 4 3 5 2 4 4 5 3 6 5 2 6 11 5 0 7 11 14 16 13
14 14 15 15 15 14 13 11 9 7 5 5 7 9 5 5 5 7 10 11 5 1 3 5 5 4 4 2 3 4 3 7 7 7 8 6 13 9 14 19 18 13 12 15 14
12 11 11 12 13 13 13 12 10 6 5 6 8 10 3 4 4 5 5 7 7 6 2 7 4 4 4 2 3 1 3 5 4 6 3 8 11 10 17 17 15 19 14 10 9
12 10 9 10 11 12 13 12 10 5 5 6 10 13 2 2 3 3 5 6 5 5 6 6 5 2 1 3 1 0 3 2 2 3 2 7 7 16 22 16 22 26 16 7 8
16 11 9 9 10 11 13 15 6 2 4 7 12 9 2 3 3 3 3 6 7 5 5 3 2 0 1 0 2 1 1 3 3 3 4 4 6 9 9 13 30 24 22 6 11
21 15 11 9 8 10 13 13 5 2 4 8 7 5 3 5 5 2 3 3 4 6 6 2 3 2 1 2 3 3 2 1 3 2 1 3 6 24 21 12 25 23 7 8 10
23 18 13 9 7 8 11 8 8 2 2 7 2 2 3 6 4 1 3 3 3 6 7 2 1 2 2 2 4 3 2 2 3 2 5 9 12 17 25 5 2 19 20 20 24
24 20 16 11 7 6 6 6 6 2 10 6 6 5 6 4 3 2 3 3 3 2 2 2 4 6 5 2 2 3 3 4 5 3 5 11 15 18 25 20 22 23 26 26 26
25 22 18 11 6 4 3 3 5 5 6 9 9 10 7 4 0 2 4 3 2 2 2 2 4 3 4 2 6 5 4 6 4 4 9 18 19 20 24 21 23 25 25 23 23
26 24 18 10 5 2 3 4 6 7 2 5 2 4 1 3 1 1 6 3 1 1 2 1 3 2 3 3 6 4 6 4 5 7 8 9 16 16 17 23 25 27 23 23 23
26 24 20 9 1 3 4 5 5 4 2 2 2 2 4 3 2 3 5 1 1 2 3 1 4 4 4 4 4 2 4 2 1 5 4 3 5 11 10 14 22 22 22 21 22
27 24 20 9 3 4 2 3 3 2 1 2 2 2 3 2 3 3 2 1 2 3 2 3 4 4 5 3 2 2 0 2 2 3 3 5 4 4 2 11 12 15 18 19 19
28 23 18 10 6 7 3 1 3 1 2 1 2 4 4 2 2 2 3 4 3 3 4 2 2 3 2 2 3 6 1 4 3 1 6 5 1 4 1 2 7 10 13 14 15
27 20 14 5 4 10 5 1 1 3 1 2 2 3 4 2 3 3 4 5 3 1 4 3 3 3 5 1 3 2 0 3 4 4 2 2 1 5 5 6 6 7 10 11 12
27 16 7 5 13 8 7 2 4 2 3 1 1 4 3 2 2 2 3 3 5 2 2 1 3 6 8 3 2 4 1 3 5 3 3 1 4 5 8 9 8 7 3 7 11
27 7 4 4 14 9 6 2 3 4 2 2 2 3 2 2 3 3 3 2 2 2 1 1 1 1 6 4 2 3 1 2 5 1 3 4 4 5 9 8 6 5 4 6 10
22 5 8 10 12 8 3 3 3 3 4 1 1 0 3 2 3 2 3 1 2 2 2 3 1 2 3 1 9 2 5 2 1 3 4 3 4 4 15 10 4 4 6 8 11
14 3 7 10 7 3 2 4 4 7 5 1 2 3 3 3 3 2 3 2 2 3 3 2 0 1 2 6 4 0 1 4 2 2 3 2 2 7 16 12 6 5 7 8 12
13 1 7 9 1 1 2 3 4 4 1 1 3 3 2 2 3 2 3 2 5 1 2 2 2 1 2 1 2 4 3 2 2 3 1 2 1 3 11 9 4 4 7 7 10
17 6 6 7 1 0 3 3 3 3 3 1 2 2 3 3 3 2 3 3 1 2 3 4 2 1 2 3 2 3 3 3 3 1 3 3 1 5 6 5 1 5 8 10 13
8 4 5 7 6 2 4 2 2 2 2 3 3 3 3 2 4 5 4 3 3 5 6 4 2 2 3 1 2 1 2 1 1 1 1 3 2 8 8 4 2 7 10 12 14
6 2 3 3 3 2 1 2 3 1 2 2 3 2 4 3 2 3 3 4 4 2 4 2 2 2 2 1 1 1 3 3 2 1 3 2 1 5 8 2 4 8 11 13 15
6 5 4 5 5 3 1 2 2 1 3 0 5 3 2 4 3 7 6 3 2 3 2 1 3 3 2 2 1 2 3 5 4 4 5 3 3 4 4 1 5 8 10 12 16
6 6 4 3 3 2 1 2 1 4 4 3 10 6 6 5 7 8 6 6 4 4 3 2 4 3 2 1 1 4 4 2 2 2 2 2 3 8 4 4 7 9 7 13 15
Wind_Direction
30 24 18 14 13 13 15 16 8 0 278 299 323 330 330 326 329 355 48 101 207 216 209 187 198 184 183 178 158 140 173 187 177 190 355 28 38 29 347 121 138 141 55 32 346
36 32 29 27 28 30 34 38 49 59 56 28 35 27 20 23 92 72 52 43 122 128 158 161 160 161 162 169 165 173 202 197 176 145 32 355 345 39 350 9 354 250 284 323 303
45 46 46 45 45 44 43 45 51 59 62 61 58 54 24 66 103 26 356 349 121 126 106 161 135 149 134 150 162 159 209 200 181 175 222 25 82 11 60 15 341 322 296 292 274
43 44 44 44 44 45 47 48 48 50 52 57 61 32 33 82 82 32 41 114 164 139 116 140 135 115 131 172 170 194 194 190 174 201 186 153 166 295 301 297 340 8 336 299 274
34 37 37 36 35 34 33 33 33 36 48 59 35 21 47 82 81 54 53 63 80 169 168 136 136 133 137 156 157 218 190 214 250 238 249 168 191 188 227 284 309 291 318 341 284
19 21 23 24 23 23 23 20 18 27 50 34 18 7 49 95 87 49 34 36 42 40 145 164 133 107 105 139 197 280 248 244 252 270 230 199 212 192 228 230 246 283 314 334 316
1 358 360 3 7 10 11 8 6 20 25 5 356 358 90 91 70 35 24 12 19 48 70 149 134 65 61 145 316 89 267 246 215 266 244 161 176 208 212 193 214 246 254 294 300
3 345 336 340 347 352 355 354 6 16 357 348 346 357 41 56 25 114 49 29 21 77 119 103 218 336 136 90 61 101 119 229 126 279 29 194 250 349 296 220 214 218 235 288 350
7 353 333 319 326 336 348 356 7 325 332 337 343 359 73 40 41 87 94 58 44 109 145 132 115 95 86 112 138 42 137 122 137 71 33 221 2 3 354 227 195 202 69 70 93
6 359 341 317 308 322 353 357 357 340 320 329 356 17 81 358 39 359 139 115 117 129 105 144 106 177 133 207 209 175 166 173 272 175 356 83 41 16 26 21 44 93 86 83 72
3 359 348 328 299 305 2 3 355 345 313 263 276 281 292 338 312 132 179 157 177 171 195 60 239 241 248 205 209 179 200 250 265 341 83 75 54 29 52 70 81 79 75 70 73
358 356 351 332 306 285 61 65 25 327 308 300 264 263 276 287 297 214 195 189 157 183 141 203 263 287 181 166 189 191 208 239 271 104 103 77 52 42 52 70 76 80 75 75 70
354 352 349 338 309 232 147 31 352 345 303 298 245 261 215 176 188 130 175 165 149 144 202 233 348 187 260 161 177 212 235 224 258 127 100 132 56 49 54 63 72 70 71 68 67
352 347 345 342 258 154 143 8 351 335 355 273 231 197 191 161 84 165 187 223 126 43 148 45 338 106 126 109 186 176 204 214 210 200 187 319 141 56 63 54 56 63 69 67 65
347 343 340 329 220 169 196 8 356 334 155 149 188 164 174 161 135 71 103 134 52 55 258 62 38 58 67 3 254 84 49 73 80 101 200 40 115 86 65 55 48 50 69 69 65
345 337 334 327 223 199 196 347 333 250 230 151 165 166 144 73 60 102 95 81 75 88 34 42 316 30 12 65 37 142 82 59 66 118 237 15 234 122 46 81 74 65 62 64 57
344 331 323 309 184 169 173 190 187 222 349 145 174 173 180 102 70 43 50 37 34 177 31 356 40 2 27 214 78 145 126 279 244 222 301 329 107 75 108 86 112 79 57 56 48
344 331 316 190 166 147 148 86 218 236 236 78 89 111 150 134 75 86 106 99 56 42 95 14 189 10 354 31 352 40 264 262 279 257 156 106 157 131 128 123 111 92 80 47 33
348 3 89 168 172 161 141 162 238 218 307 309 128 123 110 119 132 119 70 117 47 34 121 160 180 7 41 21 309 141 204 54 113 105 220 117 116 161 162 152 136 100 68 34 18
349 87 51 125 145 143 108 226 251 239 323 321 142 180 150 128 134 133 150 120 116 31 246 155 251 33 337 270 59 359 122 210 169 212 242 184 211 205 185 176 139 63 23 8 360
356 85 25 147 145 131 179 234 272 269 243 255 158 121 92 110 97 102 131 89 24 71 92 125 294 107 292 23 340 257 157 64 87 329 270 251 196 339 181 168 134 58 14 355 350
359 6 21 170 81 26 176 208 305 292 85 118 98 92 97 84 95 118 139 54 2 50 61 35 93 304 67 14 13 51 57 37 248 200 72 311 146 58 138 142 120 29 1 348 345
344 310 14 169 150 314 315 277 255 313 18 60 103 47 55 110 114 106 102 25 40 72 135 168 53 131 93 180 149 52 38 87 92 70 199 268 112 149 149 148 121 337 346 348 344
353 331 0 78 78 62 1 307 259 59 87 60 108 117 111 90 34 136 132 39 57 89 103 104 110 239 256 58 356 204 342 48 268 213 219 263 163 194 195 206 321 343 346 344 345
357 27 350 339 52 14 243 292 289 218 68 52 89 95 138 124 106 130 136 139 81 112 66 65 135 178 167 328 230 302 309 316 243 49 250 73 273 179 184 223 325 338 341 344 345
8 351 331 284 296 292 173 203 265 162 330 104 133 117 106 144 176 186 153 192 171 102 84 42 141 168 193 146 341 235 138 99 94 115 105 136 125 155 168 284 319 332 336 341 341
346 327 315 287 306 269 190 290 48 151 43 44 134 115 104 105 105 96 94 95 118 158 127 116 145 154 230 70 272 249 205 184 136 177 165 261 87 168 202 275 324 329 341 340 338